DLH1315 EGLL-EDDF

Flight info

Callsign DLH1315
Flight time 1h 18m
Altitude 35000
Route BPK Q295 MATCH DCT REDFA DCT TACHA DCT NOLRU DCT DIXAT DIXAT2C
Aircraft A338/H-SADE1E2E3GHIJ3J5M1P2RWXY/LB2D1

Departure

Time 2026-05-07 20:13
Airport London Heathrow Airport (EGLL)

Arrival

Time 2026-05-07 21:32
Airport Frankfurt Main Airport (EDDF)
Time Latitude Longitude Altitude Speed Heading
2026-05-07 19:37 51.46912 -0.48009 90 ft 0 kts 269°
2026-05-07 19:56 51.46912 -0.48002 91 ft 3 kts 269°
2026-05-07 19:57 51.46912 -0.47970 77 ft 3 kts 264°
2026-05-07 19:57 51.46916 -0.47939 71 ft 3 kts 244°
2026-05-07 19:57 51.46925 -0.47912 91 ft 3 kts 223°
2026-05-07 19:57 51.46940 -0.47893 89 ft 3 kts 203°
2026-05-07 19:58 51.46958 -0.47884 89 ft 3 kts 183°
2026-05-07 19:58 51.46962 -0.47883 89 ft 0 kts 179°
2026-05-07 20:02 51.46962 -0.47882 90 ft 1 kts 177°
2026-05-07 20:02 51.46893 -0.47872 89 ft 13 kts 178°
2026-05-07 20:02 51.46792 -0.47869 88 ft 15 kts 180°
2026-05-07 20:03 51.46743 -0.47936 90 ft 7 kts 259°
2026-05-07 20:03 51.46743 -0.48026 87 ft 9 kts 269°
2026-05-07 20:03 51.46743 -0.48086 87 ft 0 kts 270°
2026-05-07 20:05 51.46743 -0.48088 87 ft 4 kts 270°
2026-05-07 20:05 51.46742 -0.48193 90 ft 10 kts 270°
2026-05-07 20:05 51.46743 -0.48293 92 ft 9 kts 270°
2026-05-07 20:05 51.46744 -0.48399 91 ft 11 kts 270°
2026-05-07 20:06 51.46743 -0.48536 89 ft 14 kts 271°
2026-05-07 20:06 51.46735 -0.48695 91 ft 14 kts 255°
2026-05-07 20:06 51.46686 -0.48744 94 ft 7 kts 184°
2026-05-07 20:06 51.46630 -0.48754 89 ft 10 kts 189°
2026-05-07 20:07 51.46608 -0.48762 90 ft 0 kts 195°
2026-05-07 20:10 51.46607 -0.48762 87 ft 3 kts 194°
2026-05-07 20:10 51.46573 -0.48772 89 ft 9 kts 187°
2026-05-07 20:11 51.46518 -0.48766 90 ft 7 kts 165°
2026-05-07 20:11 51.46484 -0.48711 89 ft 10 kts 119°
2026-05-07 20:11 51.46478 -0.48611 90 ft 0 kts 91°
2026-05-07 20:12 51.46479 -0.48345 90 ft 59 kts 90°
2026-05-07 20:13 51.46482 -0.47280 87 ft 130 kts 90°
2026-05-07 20:13 51.46492 -0.45510 192 ft 184 kts 92°
2026-05-07 20:13 51.46488 -0.43288 770 ft 210 kts 89°
2026-05-07 20:13 51.46871 -0.40846 1186 ft 237 kts 64°
2026-05-07 20:14 51.47768 -0.38914 1603 ft 199 kts 38°
2026-05-07 20:14 51.48871 -0.37718 1576 ft 188 kts 31°
2026-05-07 20:14 51.49893 -0.36408 1407 ft 190 kts 42°
2026-05-07 20:14 51.50780 -0.34744 1393 ft 205 kts 54°
2026-05-07 20:15 51.51516 -0.32676 1575 ft 227 kts 66°
2026-05-07 20:15 51.52138 -0.30254 2225 ft 242 kts 70°
2026-05-07 20:15 51.52741 -0.27647 2842 ft 255 kts 71°
2026-05-07 20:15 51.53362 -0.24954 3617 ft 258 kts 70°
2026-05-07 20:16 51.54124 -0.22336 4368 ft 261 kts 54°
2026-05-07 20:16 51.55476 -0.20391 5141 ft 264 kts 32°
2026-05-07 20:16 51.57109 -0.19070 5582 ft 262 kts 21°
2026-05-07 20:16 51.58877 -0.18102 5822 ft 274 kts 16°
2026-05-07 20:17 51.60691 -0.17245 6465 ft 271 kts 15°
2026-05-07 20:17 51.62518 -0.16427 7125 ft 275 kts 14°
2026-05-07 20:17 51.64373 -0.15592 7772 ft 279 kts 15°
2026-05-07 20:17 51.66260 -0.14730 8429 ft 284 kts 15°
2026-05-07 20:18 51.68173 -0.13849 9067 ft 288 kts 15°
2026-05-07 20:18 51.70118 -0.12960 9765 ft 292 kts 14°
2026-05-07 20:18 51.72070 -0.12000 10301 ft 300 kts 21°
2026-05-07 20:18 51.73843 -0.10049 10461 ft 321 kts 47°
2026-05-07 20:19 51.75018 -0.06900 10667 ft 338 kts 71°
2026-05-07 20:19 51.75617 -0.03141 10922 ft 353 kts 79°
2026-05-07 20:19 51.76057 0.00827 11236 ft 366 kts 82°
2026-05-07 20:19 51.76432 0.04962 11589 ft 378 kts 83°
2026-05-07 20:20 51.76768 0.09233 11740 ft 385 kts 84°
2026-05-07 20:20 51.77074 0.13506 11965 ft 383 kts 85°
2026-05-07 20:20 51.77378 0.17792 12021 ft 385 kts 84°
2026-05-07 20:20 51.77798 0.22069 12057 ft 385 kts 80°
2026-05-07 20:21 51.78348 0.26296 12068 ft 385 kts 78°
2026-05-07 20:21 51.78950 0.30509 12071 ft 384 kts 78°
2026-05-07 20:21 51.79573 0.34704 12073 ft 384 kts 77°
2026-05-07 20:21 51.80212 0.38901 12074 ft 385 kts 77°
2026-05-07 20:22 51.80860 0.43091 12075 ft 384 kts 77°
2026-05-07 20:22 51.81512 0.47272 12075 ft 384 kts 77°
2026-05-07 20:22 51.82165 0.51451 12073 ft 384 kts 77°
2026-05-07 20:22 51.82821 0.55637 12077 ft 384 kts 77°
2026-05-07 20:23 51.83477 0.59824 12074 ft 385 kts 77°
2026-05-07 20:23 51.84133 0.64023 12079 ft 384 kts 77°
2026-05-07 20:23 51.84786 0.68208 12081 ft 383 kts 77°
2026-05-07 20:23 51.85437 0.72389 12082 ft 383 kts 77°
2026-05-07 20:24 51.86086 0.76572 12087 ft 384 kts 77°
2026-05-07 20:24 51.86737 0.80776 12087 ft 385 kts 77°
2026-05-07 20:24 51.87386 0.84968 12086 ft 384 kts 77°
2026-05-07 20:24 51.88033 0.89154 12084 ft 383 kts 77°
2026-05-07 20:25 51.88677 0.93349 12224 ft 384 kts 77°
2026-05-07 20:25 51.89317 0.97548 12780 ft 386 kts 77°
2026-05-07 20:25 51.89908 1.01424 13337 ft 389 kts 77°
2026-05-07 20:25 51.90560 1.05688 13932 ft 392 kts 77°
2026-05-07 20:26 51.91217 1.09999 14453 ft 396 kts 77°
2026-05-07 20:26 51.91874 1.14317 14802 ft 396 kts 77°
2026-05-07 20:26 51.92540 1.18693 15004 ft 404 kts 77°
2026-05-07 20:26 51.93216 1.23101 15619 ft 403 kts 77°
2026-05-07 20:27 51.93890 1.27536 16169 ft 407 kts 77°
2026-05-07 20:27 51.94557 1.31949 16717 ft 410 kts 77°
2026-05-07 20:27 51.95240 1.36492 17278 ft 414 kts 77°
2026-05-07 20:27 51.95892 1.40841 17732 ft 418 kts 77°
2026-05-07 20:28 51.96590 1.45514 18014 ft 422 kts 77°
2026-05-07 20:28 51.97278 1.50139 18584 ft 423 kts 77°
2026-05-07 20:28 51.97941 1.54616 19030 ft 426 kts 77°
2026-05-07 20:28 51.98632 1.59301 19489 ft 429 kts 77°
2026-05-07 20:29 51.99327 1.64026 19956 ft 432 kts 77°
2026-05-07 20:29 52.00026 1.68791 20427 ft 435 kts 77°
2026-05-07 20:29 52.00727 1.73582 20880 ft 438 kts 77°
2026-05-07 20:29 52.01423 1.78353 21321 ft 442 kts 77°
2026-05-07 20:30 52.02131 1.83219 21779 ft 445 kts 77°
2026-05-07 20:30 52.02846 1.88139 22227 ft 448 kts 77°
2026-05-07 20:30 52.03533 1.92882 22661 ft 451 kts 77°
2026-05-07 20:30 52.04253 1.97869 23101 ft 454 kts 77°
2026-05-07 20:31 52.04976 2.02891 23539 ft 458 kts 77°
2026-05-07 20:31 52.05700 2.07940 23939 ft 461 kts 77°
2026-05-07 20:31 52.06427 2.13024 24332 ft 464 kts 77°
2026-05-07 20:31 52.07158 2.18146 24721 ft 466 kts 77°
2026-05-07 20:32 52.07889 2.23292 25094 ft 469 kts 77°
2026-05-07 20:32 52.08622 2.28473 25483 ft 472 kts 77°
2026-05-07 20:32 52.09357 2.33679 25875 ft 474 kts 77°
2026-05-07 20:32 52.10069 2.38714 26219 ft 477 kts 77°
2026-05-07 20:33 52.10826 2.43989 26607 ft 479 kts 76°
2026-05-07 20:33 52.11698 2.49232 26986 ft 482 kts 73°
2026-05-07 20:33 52.12674 2.54484 27334 ft 484 kts 72°
2026-05-07 20:33 52.13688 2.59723 27697 ft 487 kts 72°
2026-05-07 20:34 52.14696 2.64992 28059 ft 489 kts 72°
2026-05-07 20:34 52.15688 2.70311 28424 ft 492 kts 73°
2026-05-07 20:34 52.16688 2.75657 28755 ft 495 kts 73°
2026-05-07 20:34 52.17694 2.81024 29103 ft 497 kts 72°
2026-05-07 20:35 52.18704 2.86409 29548 ft 496 kts 73°
2026-05-07 20:35 52.19701 2.91787 30056 ft 495 kts 73°
2026-05-07 20:35 52.20644 2.96953 30488 ft 494 kts 73°
2026-05-07 20:35 52.21621 3.02321 30914 ft 493 kts 73°
2026-05-07 20:36 52.22601 3.07686 31347 ft 493 kts 73°
2026-05-07 20:36 52.23579 3.13034 31775 ft 492 kts 73°
2026-05-07 20:36 52.24551 3.18383 32206 ft 491 kts 75°
2026-05-07 20:36 52.25053 3.23876 32602 ft 490 kts 90°
2026-05-07 20:37 52.24615 3.29352 33036 ft 486 kts 107°
2026-05-07 20:37 52.23559 3.34588 33475 ft 485 kts 112°
2026-05-07 20:37 52.22366 3.39722 33907 ft 484 kts 113°
2026-05-07 20:37 52.21124 3.44829 34312 ft 483 kts 114°
2026-05-07 20:38 52.19859 3.49904 34666 ft 483 kts 114°
2026-05-07 20:38 52.18589 3.54949 34905 ft 481 kts 114°
2026-05-07 20:38 52.17334 3.59923 35007 ft 482 kts 114°
2026-05-07 20:39 52.14778 3.70078 35071 ft 485 kts 114°
2026-05-07 20:39 52.12242 3.80221 35086 ft 482 kts 114°
2026-05-07 20:40 52.09775 3.90115 35090 ft 482 kts 114°
2026-05-07 20:40 52.07254 4.00221 35088 ft 483 kts 114°
2026-05-07 20:41 52.04736 4.10344 35081 ft 482 kts 114°
2026-05-07 20:41 52.02224 4.20434 35086 ft 481 kts 114°
2026-05-07 20:42 51.99760 4.30315 35067 ft 482 kts 114°
2026-05-07 20:42 51.97303 4.40147 35079 ft 482 kts 114°
2026-05-07 20:43 51.94762 4.50283 35077 ft 482 kts 114°
2026-05-07 20:43 51.92247 4.60271 35072 ft 481 kts 114°
2026-05-07 20:44 51.89710 4.70303 35077 ft 482 kts 114°
2026-05-07 20:44 51.87210 4.80147 35075 ft 482 kts 114°
2026-05-07 20:45 51.84656 4.90158 35079 ft 481 kts 114°
2026-05-07 20:45 51.82094 5.00155 35081 ft 481 kts 114°
2026-05-07 20:46 51.79520 5.10146 35079 ft 482 kts 114°
2026-05-07 20:46 51.76938 5.20129 35082 ft 482 kts 114°
2026-05-07 20:47 51.74350 5.30097 35076 ft 481 kts 114°
2026-05-07 20:47 51.71755 5.40046 35077 ft 481 kts 114°
2026-05-07 20:48 51.69147 5.50000 35074 ft 482 kts 114°
2026-05-07 20:48 51.66534 5.59936 35071 ft 481 kts 114°
2026-05-07 20:49 51.63938 5.69782 35071 ft 481 kts 115°
2026-05-07 20:49 51.61302 5.79701 35076 ft 482 kts 115°
2026-05-07 20:50 51.58659 5.89609 35072 ft 482 kts 115°
2026-05-07 20:50 51.56007 5.99513 35071 ft 482 kts 115°
2026-05-07 20:51 51.53349 6.09394 35072 ft 481 kts 115°
2026-05-07 20:51 51.50709 6.19272 35073 ft 482 kts 114°
2026-05-07 20:52 51.48193 6.29253 35077 ft 482 kts 113°
2026-05-07 20:52 51.45729 6.39232 35083 ft 481 kts 113°
2026-05-07 20:53 51.43267 6.49229 35078 ft 482 kts 113°
2026-05-07 20:53 51.40799 6.59210 35095 ft 482 kts 113°
2026-05-07 20:54 51.38317 6.69183 35105 ft 482 kts 113°
2026-05-07 20:54 51.35837 6.79128 35106 ft 481 kts 113°
2026-05-07 20:55 51.33363 6.89004 35106 ft 482 kts 113°
2026-05-07 20:55 51.30859 6.98952 35104 ft 482 kts 113°
2026-05-07 20:56 51.28351 7.08866 35096 ft 481 kts 114°
2026-05-07 20:56 51.25325 7.16157 35104 ft 474 kts 139°
2026-05-07 20:56 51.22601 7.19199 35109 ft 471 kts 154°
2026-05-07 20:57 51.19663 7.21499 35095 ft 472 kts 157°
2026-05-07 20:57 51.13660 7.25726 35093 ft 471 kts 158°
2026-05-07 20:58 51.07793 7.30183 35096 ft 470 kts 155°
2026-05-07 20:58 51.01954 7.34925 35096 ft 472 kts 154°
2026-05-07 20:59 50.96131 7.39753 35097 ft 473 kts 154°
2026-05-07 20:59 50.90307 7.44591 35095 ft 472 kts 154°
2026-05-07 21:00 50.84483 7.49382 35096 ft 472 kts 154°
2026-05-07 21:00 50.78633 7.54173 35089 ft 473 kts 152°
2026-05-07 21:01 50.72865 7.59172 35074 ft 473 kts 149°
2026-05-07 21:01 50.67178 7.64078 34760 ft 479 kts 150°
2026-05-07 21:01 50.64178 7.66456 33985 ft 483 kts 153°
2026-05-07 21:02 50.61162 7.68771 33176 ft 479 kts 152°
2026-05-07 21:02 50.58225 7.71130 32395 ft 471 kts 151°
2026-05-07 21:02 50.55372 7.73464 31633 ft 464 kts 151°
2026-05-07 21:02 50.52483 7.75816 30858 ft 458 kts 152°
2026-05-07 21:03 50.49689 7.78032 30125 ft 453 kts 152°
2026-05-07 21:03 50.46884 7.80215 29282 ft 448 kts 151°
2026-05-07 21:03 50.44190 7.82751 28489 ft 443 kts 145°
2026-05-07 21:03 50.41679 7.85518 27709 ft 439 kts 142°
2026-05-07 21:04 50.39254 7.88372 26924 ft 434 kts 141°
2026-05-07 21:04 50.36907 7.91211 26191 ft 430 kts 141°
2026-05-07 21:04 50.34563 7.94077 25457 ft 425 kts 141°
2026-05-07 21:04 50.32235 7.96908 24747 ft 421 kts 141°
2026-05-07 21:05 50.29927 7.99699 24044 ft 418 kts 141°
2026-05-07 21:05 50.27659 8.02509 23310 ft 414 kts 140°
2026-05-07 21:05 50.25430 8.05339 22493 ft 411 kts 140°
2026-05-07 21:05 50.23225 8.08151 21716 ft 408 kts 140°
2026-05-07 21:06 50.21039 8.10939 20966 ft 405 kts 140°
2026-05-07 21:06 50.18851 8.13694 20214 ft 403 kts 140°
2026-05-07 21:06 50.16674 8.16424 19494 ft 401 kts 140°
2026-05-07 21:06 50.14503 8.19142 18788 ft 399 kts 140°
2026-05-07 21:07 50.12337 8.21823 18041 ft 396 kts 140°
2026-05-07 21:07 50.10182 8.24483 17258 ft 394 kts 140°
2026-05-07 21:07 50.08036 8.27123 16504 ft 392 kts 141°
2026-05-07 21:07 50.05897 8.29732 15778 ft 389 kts 141°
2026-05-07 21:08 50.03919 8.32595 14935 ft 392 kts 127°
2026-05-07 21:08 50.02647 8.36348 14064 ft 396 kts 106°
2026-05-07 21:08 50.02275 8.40580 13121 ft 398 kts 86°
2026-05-07 21:08 50.02662 8.44837 12142 ft 398 kts 77°
2026-05-07 21:09 50.03268 8.49032 11240 ft 398 kts 75°
2026-05-07 21:09 50.03913 8.53168 10639 ft 388 kts 74°
2026-05-07 21:09 50.04545 8.57199 10028 ft 381 kts 74°
2026-05-07 21:09 50.05228 8.61138 9480 ft 370 kts 72°
2026-05-07 21:10 50.05960 8.64876 9255 ft 352 kts 70°
2026-05-07 21:10 50.06696 8.68381 9155 ft 330 kts 69°
2026-05-07 21:10 50.07401 8.71605 9125 ft 307 kts 68°
2026-05-07 21:10 50.08072 8.74638 9103 ft 287 kts 67°
2026-05-07 21:11 50.08735 8.77578 9097 ft 284 kts 67°
2026-05-07 21:11 50.09390 8.80469 9095 ft 289 kts 67°
2026-05-07 21:11 50.10694 8.86382 9094 ft 288 kts 68°
2026-05-07 21:12 50.11348 8.89330 9096 ft 288 kts 67°
2026-05-07 21:12 50.12024 8.92277 9095 ft 289 kts 66°
2026-05-07 21:12 50.12708 8.95226 9092 ft 289 kts 67°
2026-05-07 21:12 50.13385 8.98167 9090 ft 288 kts 66°
2026-05-07 21:13 50.14079 9.01100 9085 ft 289 kts 66°
2026-05-07 21:13 50.14780 9.04044 9082 ft 290 kts 66°
2026-05-07 21:13 50.15462 9.06997 9081 ft 289 kts 69°
2026-05-07 21:13 50.15749 9.10069 9064 ft 289 kts 93°
2026-05-07 21:14 50.15131 9.13029 9058 ft 290 kts 120°
2026-05-07 21:14 50.13727 9.15243 9053 ft 289 kts 147°
2026-05-07 21:14 50.11857 9.16295 9041 ft 287 kts 172°
2026-05-07 21:14 50.09895 9.16019 9021 ft 284 kts 197°
2026-05-07 21:15 50.08211 9.14459 9027 ft 285 kts 223°
2026-05-07 21:15 50.07125 9.11918 9019 ft 282 kts 246°
2026-05-07 21:15 50.06527 9.09028 9050 ft 279 kts 251°
2026-05-07 21:15 50.05989 9.06140 9066 ft 273 kts 251°
2026-05-07 21:16 50.05480 9.03409 9067 ft 254 kts 249°
2026-05-07 21:16 50.04959 9.00863 9069 ft 243 kts 245°
2026-05-07 21:16 50.04369 8.98382 9072 ft 248 kts 245°
2026-05-07 21:16 50.03779 8.95849 9070 ft 249 kts 246°
2026-05-07 21:17 50.03219 8.93318 9071 ft 247 kts 247°
2026-05-07 21:17 50.02654 8.90783 9077 ft 248 kts 247°
2026-05-07 21:17 50.02097 8.88273 9085 ft 249 kts 247°
2026-05-07 21:17 50.01511 8.85703 9090 ft 248 kts 246°
2026-05-07 21:18 50.00922 8.83224 9090 ft 248 kts 246°
2026-05-07 21:18 50.00317 8.80711 9093 ft 249 kts 246°
2026-05-07 21:18 49.99717 8.78184 9092 ft 249 kts 246°
2026-05-07 21:18 49.99125 8.75660 9093 ft 248 kts 246°
2026-05-07 21:19 49.98529 8.73139 9099 ft 248 kts 246°
2026-05-07 21:19 49.97932 8.70625 9094 ft 249 kts 246°
2026-05-07 21:19 49.97328 8.68102 9103 ft 249 kts 247°
2026-05-07 21:19 49.96739 8.65568 9101 ft 249 kts 247°
2026-05-07 21:20 49.96151 8.63050 9104 ft 248 kts 246°
2026-05-07 21:20 49.95542 8.60545 9099 ft 248 kts 246°
2026-05-07 21:20 49.94930 8.58037 9098 ft 249 kts 246°
2026-05-07 21:20 49.94329 8.55518 9099 ft 249 kts 246°
2026-05-07 21:21 49.93754 8.53100 9103 ft 248 kts 246°
2026-05-07 21:21 49.93173 8.50688 9104 ft 248 kts 246°
2026-05-07 21:21 49.92566 8.48181 9096 ft 249 kts 246°
2026-05-07 21:21 49.91953 8.45674 9097 ft 248 kts 245°
2026-05-07 21:22 49.91331 8.43176 9098 ft 248 kts 245°
2026-05-07 21:22 49.90727 8.40704 9079 ft 248 kts 246°
2026-05-07 21:22 49.90126 8.38193 9079 ft 248 kts 246°
2026-05-07 21:22 49.89522 8.35687 9083 ft 248 kts 246°
2026-05-07 21:23 49.88923 8.33172 9069 ft 249 kts 246°
2026-05-07 21:23 49.88293 8.30548 8325 ft 266 kts 247°
2026-05-07 21:23 49.87664 8.27853 7519 ft 265 kts 249°
2026-05-07 21:23 49.87054 8.25232 6873 ft 253 kts 247°
2026-05-07 21:24 49.86427 8.22692 6182 ft 245 kts 246°
2026-05-07 21:24 49.85815 8.20309 5512 ft 239 kts 245°
2026-05-07 21:24 49.85203 8.17932 4828 ft 237 kts 245°
2026-05-07 21:24 49.84618 8.15573 4307 ft 230 kts 246°
2026-05-07 21:25 49.84111 8.13234 4082 ft 230 kts 258°
2026-05-07 21:25 49.84216 8.10734 4000 ft 238 kts 290°
2026-05-07 21:25 49.85172 8.08811 3957 ft 220 kts 323°
2026-05-07 21:25 49.86587 8.08061 3902 ft 217 kts 354°
2026-05-07 21:26 49.88052 8.08559 3880 ft 219 kts 26°
2026-05-07 21:26 49.89117 8.10203 3883 ft 219 kts 55°
2026-05-07 21:26 49.89775 8.12333 3911 ft 218 kts 63°
2026-05-07 21:26 49.90382 8.14489 3970 ft 219 kts 54°
2026-05-07 21:27 49.91385 8.16251 3995 ft 220 kts 39°
2026-05-07 21:27 49.92328 8.18133 3953 ft 221 kts 53°
2026-05-07 21:27 49.93112 8.20168 3955 ft 218 kts 54°
2026-05-07 21:27 49.93873 8.22217 3956 ft 220 kts 57°
2026-05-07 21:28 49.94540 8.24360 3964 ft 220 kts 58°
2026-05-07 21:28 49.95238 8.26446 3970 ft 212 kts 57°
2026-05-07 21:28 49.95917 8.28412 3872 ft 209 kts 55°
2026-05-07 21:28 49.96640 8.30381 3530 ft 206 kts 54°
2026-05-07 21:29 49.97311 8.32245 3229 ft 187 kts 54°
2026-05-07 21:29 49.97916 8.33947 2973 ft 175 kts 57°
2026-05-07 21:29 49.98458 8.35610 2753 ft 172 kts 53°
2026-05-07 21:29 49.98972 8.37306 2468 ft 174 kts 60°
2026-05-07 21:30 49.99391 8.39034 2255 ft 169 kts 55°
2026-05-07 21:30 50.00084 8.40465 2097 ft 171 kts 34°
2026-05-07 21:30 50.01079 8.41530 1664 ft 173 kts 36°
2026-05-07 21:30 50.01719 8.43051 1295 ft 169 kts 59°
2026-05-07 21:31 50.02295 8.44607 1152 ft 169 kts 53°
2026-05-07 21:31 50.02829 8.46242 919 ft 170 kts 63°
2026-05-07 21:31 50.03261 8.47927 645 ft 166 kts 60°
2026-05-07 21:31 50.03670 8.49596 392 ft 165 kts 65°
2026-05-07 21:32 50.04051 8.51135 332 ft 119 kts 67°
2026-05-07 21:32 50.04223 8.51880 357 ft 36 kts 72°
2026-05-07 21:32 50.04233 8.52179 346 ft 27 kts 97°
2026-05-07 21:32 50.04211 8.52383 354 ft 0 kts 101°
2026-05-07 21:34 50.04210 8.52386 353 ft 4 kts 101°
2026-05-07 21:34 50.04197 8.52510 347 ft 16 kts 98°
2026-05-07 21:34 50.04205 8.52693 352 ft 20 kts 72°
2026-05-07 21:34 50.04254 8.52901 362 ft 19 kts 69°
2026-05-07 21:35 50.04297 8.53079 364 ft 17 kts 70°
2026-05-07 21:35 50.04343 8.53268 366 ft 19 kts 69°
2026-05-07 21:35 50.04389 8.53467 373 ft 19 kts 75°
2026-05-07 21:35 50.04411 8.53679 374 ft 20 kts 83°
2026-05-07 21:36 50.04421 8.53883 375 ft 15 kts 85°
2026-05-07 21:36 50.04430 8.54043 377 ft 14 kts 84°
2026-05-07 21:36 50.04441 8.54195 375 ft 13 kts 82°
2026-05-07 21:36 50.04452 8.54359 355 ft 18 kts 85°
2026-05-07 21:37 50.04433 8.54581 358 ft 21 kts 114°
2026-05-07 21:37 50.04423 8.54610 351 ft 0 kts 118°
2026-05-07 21:39 50.04422 8.54611 357 ft 3 kts 118°
2026-05-07 21:39 50.04362 8.54721 360 ft 18 kts 140°
2026-05-07 21:39 50.04249 8.54810 359 ft 19 kts 160°
2026-05-07 21:39 50.04123 8.54881 360 ft 20 kts 160°
2026-05-07 21:40 50.03997 8.54954 362 ft 19 kts 159°
2026-05-07 21:40 50.03869 8.55033 362 ft 20 kts 149°
2026-05-07 21:40 50.03856 8.55143 361 ft 9 kts 73°
2026-05-07 21:40 50.03887 8.55270 360 ft 13 kts 67°
2026-05-07 21:41 50.03930 8.55452 363 ft 22 kts 70°
2026-05-07 21:41 50.03984 8.55677 359 ft 23 kts 69°
2026-05-07 21:41 50.04037 8.55899 363 ft 22 kts 70°
2026-05-07 21:41 50.04090 8.56121 360 ft 21 kts 68°
2026-05-07 21:42 50.04140 8.56326 362 ft 20 kts 67°
2026-05-07 21:42 50.04187 8.56528 363 ft 21 kts 71°
2026-05-07 21:42 50.04241 8.56760 368 ft 24 kts 68°
2026-05-07 21:42 50.04301 8.57012 371 ft 26 kts 69°
2026-05-07 21:43 50.04365 8.57275 372 ft 25 kts 69°
2026-05-07 21:43 50.04433 8.57522 372 ft 23 kts 49°
2026-05-07 21:43 50.04521 8.57544 370 ft 19 kts 336°
2026-05-07 21:43 50.04621 8.57545 372 ft 10 kts 58°
2026-05-07 21:44 50.04654 8.57669 374 ft 15 kts 70°
2026-05-07 21:44 50.04677 8.57777 375 ft 9 kts 71°
2026-05-07 21:44 50.04685 8.57813 373 ft 0 kts 71°
2026-05-07 21:46 50.04686 8.57817 373 ft 5 kts 70°
2026-05-07 21:46 50.04764 8.57926 374 ft 16 kts 352°
2026-05-07 21:47 50.04845 8.57843 373 ft 8 kts 303°
2026-05-07 21:47 50.04873 8.57778 379 ft 6 kts 321°
2026-05-07 21:47 50.04919 8.57774 374 ft 7 kts 16°
2026-05-07 21:47 50.04941 8.57785 375 ft 0 kts 19°